EN

Hourly Weather Bolshoe Elovo

Today, 21 October, Wednesday

Time Temperature Precipitation Wind Pressure Humidity
00:00 +1°C° 0 mm 3 mps 747 mmHg 83%
01:00 +1°C° 0 mm 3 mps 747 mmHg 86%
02:00 0°C° 0 mm 3 mps 747 mmHg 90%
03:00 0°C° 0 mm 3 mps 747 mmHg 95%
04:00 -1°C° 0 mm 4 mps 747 mmHg 92%
05:00 -1°C° 0 mm 4 mps 747 mmHg 89%
06:00 -1°C° 0 mm 4 mps 747 mmHg 86%
07:00 -1°C° 0 mm 4 mps 747 mmHg 83%
08:00 -1°C° 0 mm 5 mps 747 mmHg 80%
09:00 -1°C° 0 mm 6 mps 747 mmHg 77%
10:00 -1°C° 0.1 mm 6 mps 747 mmHg 73%
11:00 -1°C° 0.1 mm 6 mps 747 mmHg 68%
12:00 -1°C° 0.1 mm 7 mps 747 mmHg 63%
13:00 -1°C° 0 mm 7 mps 747 mmHg 63%
14:00 -2°C° 0 mm 7 mps 748 mmHg 64%
15:00 -2°C° 0 mm 7 mps 748 mmHg 64%
16:00 -3°C° 0 mm 6 mps 748 mmHg 68%
17:00 -3°C° 0 mm 6 mps 748 mmHg 73%
18:00 -4°C° 0 mm 6 mps 749 mmHg 77%
19:00 -4°C° 0 mm 5 mps 749 mmHg 79%
20:00 -4°C° 0 mm 5 mps 749 mmHg 81%
21:00 -4°C° 0 mm 5 mps 749 mmHg 83%
22:00 -4°C° 0.1 mm 5 mps 749 mmHg 83%
23:00 -4°C° 0.1 mm 5 mps 749 mmHg 84%

Tomorrow, 22 October, Thursday

Time Temperature Precipitation Wind Pressure Humidity
00:00 -4°C° 0.1 mm 5 mps 749 mmHg 84%
01:00 -4°C° 0 mm 5 mps 750 mmHg 85%
02:00 -4°C° 0 mm 5 mps 750 mmHg 86%
03:00 -4°C° 0 mm 5 mps 750 mmHg 86%
04:00 -4°C° 0 mm 5 mps 750 mmHg 84%
05:00 -4°C° 0 mm 5 mps 750 mmHg 82%
06:00 -4°C° 0 mm 5 mps 751 mmHg 81%
07:00 -2°C° 0 mm 5 mps 751 mmHg 79%
08:00 -2°C° 0 mm 5 mps 751 mmHg 78%
09:00 -2°C° 0 mm 5 mps 751 mmHg 76%
10:00 -2°C° 0 mm 5 mps 751 mmHg 74%
11:00 -1°C° 0 mm 5 mps 752 mmHg 72%
12:00 -1°C° 0 mm 5 mps 752 mmHg 70%
13:00 -1°C° 0 mm 5 mps 752 mmHg 71%
14:00 -1°C° 0 mm 5 mps 752 mmHg 71%
15:00 -1°C° 0 mm 5 mps 752 mmHg 72%
16:00 -2°C° 0 mm 5 mps 752 mmHg 73%
17:00 -2°C° 0 mm 4 mps 753 mmHg 75%
18:00 -2°C° 0 mm 4 mps 753 mmHg 76%
19:00 -2°C° 0 mm 4 mps 753 mmHg 77%
20:00 -2°C° 0 mm 3 mps 753 mmHg 77%
21:00 -2°C° 0 mm 3 mps 753 mmHg 78%
22:00 -2°C° 0 mm 3 mps 753 mmHg 79%
23:00 -3°C° 0 mm 2 mps 753 mmHg 80%

Day after tomorrow, 23 October, Friday

Time Temperature Precipitation Wind Pressure Humidity
00:00 -3°C° 0 mm 2 mps 753 mmHg 81%
01:00 -1°C° 0 mm 1 mps 753 mmHg 81%
02:00 -1°C° 0 mm 1 mps 753 mmHg 81%
03:00 -1°C° 0 mm 1 mps 753 mmHg 81%
04:00 -2°C° 0 mm 1 mps 753 mmHg 81%
05:00 -2°C° 0 mm 1 mps 753 mmHg 81%
06:00 -2°C° 0 mm 1 mps 752 mmHg 81%
07:00 -3°C° 0 mm 2 mps 752 mmHg 78%
08:00 -2°C° 0 mm 3 mps 752 mmHg 75%
09:00 -1°C° 0 mm 3 mps 752 mmHg 72%
10:00 -1°C° 0 mm 4 mps 751 mmHg 69%
11:00 0°C° 0 mm 4 mps 751 mmHg 67%
12:00 0°C° 0 mm 4 mps 751 mmHg 64%
13:00 0°C° 0 mm 5 mps 750 mmHg 72%
14:00 0°C° 0 mm 5 mps 750 mmHg 80%
15:00 -1°C° 0 mm 5 mps 749 mmHg 87%
16:00 -1°C° 0.3 mm 5 mps 749 mmHg 90%
17:00 0°C° 0.3 mm 5 mps 748 mmHg 93%
18:00 -1°C° 0.3 mm 6 mps 748 mmHg 97%
19:00 0°C° 0.7 mm 5 mps 747 mmHg 96%
20:00 +1°C° 0.7 mm 5 mps 747 mmHg 96%
21:00 +1°C° 0.7 mm 5 mps 746 mmHg 96%
22:00 +1°C° 0.5 mm 5 mps 745 mmHg 96%
23:00 +1°C° 0.5 mm 5 mps 745 mmHg 96%

24 October, Saturday

Time Temperature Precipitation Wind Pressure Humidity
00:00 +1°C° 0.5 mm 5 mps 744 mmHg 96%
01:00 +2°C° 0.3 mm 5 mps 744 mmHg 96%
02:00 +3°C° 0.3 mm 4 mps 743 mmHg 97%
03:00 +4°C° 0.3 mm 4 mps 743 mmHg 97%
04:00 +4°C° 0.6 mm 4 mps 743 mmHg 97%
05:00 +5°C° 0.6 mm 4 mps 742 mmHg 98%
06:00 +5°C° 0.6 mm 4 mps 742 mmHg 98%
07:00 +6°C° 1.2 mm 4 mps 741 mmHg 98%
08:00 +6°C° 1.2 mm 4 mps 741 mmHg 98%
09:00 +6°C° 1.2 mm 4 mps 740 mmHg 97%
10:00 +6°C° 1.3 mm 4 mps 740 mmHg 97%
11:00 +6°C° 1.3 mm 4 mps 740 mmHg 98%
12:00 +7°C° 1.3 mm 3 mps 740 mmHg 98%
13:00 +7°C° 0.2 mm 4 mps 740 mmHg 97%
14:00 +7°C° 0.2 mm 4 mps 740 mmHg 96%
15:00 +7°C° 0.2 mm 4 mps 741 mmHg 95%
16:00 +7°C° 0 mm 4 mps 741 mmHg 95%
17:00 +8°C° 0 mm 3 mps 742 mmHg 95%
18:00 +8°C° 0 mm 3 mps 742 mmHg 95%
19:00 +7°C° 0 mm 3 mps 743 mmHg 95%
20:00 +7°C° 0 mm 3 mps 744 mmHg 95%
21:00 +5°C° 0 mm 3 mps 744 mmHg 95%
22:00 +5°C° 0 mm 3 mps 745 mmHg 95%
23:00 +5°C° 0 mm 3 mps 745 mmHg 95%

25 October, Sunday

Time Temperature Precipitation Wind Pressure Humidity
00:00 +5°C° 0 mm 2 mps 745 mmHg 94%
01:00 +6°C° 0 mm 2 mps 745 mmHg 94%
02:00 +6°C° 0 mm 2 mps 746 mmHg 93%
03:00 +6°C° 0 mm 2 mps 746 mmHg 93%
04:00 +6°C° 0 mm 2 mps 746 mmHg 92%
05:00 +6°C° 0 mm 2 mps 746 mmHg 91%
06:00 +7°C° 0 mm 2 mps 747 mmHg 90%
07:00 +7°C° 0 mm 2 mps 747 mmHg 89%
08:00 +8°C° 0 mm 1 mps 747 mmHg 88%
09:00 +8°C° 0 mm 1 mps 747 mmHg 87%
10:00 +9°C° 0 mm 1 mps 747 mmHg 85%
11:00 +9°C° 0 mm 2 mps 747 mmHg 83%
12:00 +9°C° 0 mm 2 mps 747 mmHg 81%
13:00 +9°C° 0 mm 2 mps 747 mmHg 83%
14:00 +9°C° 0 mm 2 mps 747 mmHg 85%
15:00 +8°C° 0 mm 2 mps 746 mmHg 86%
16:00 +8°C° 0 mm 2 mps 746 mmHg 87%
17:00 +8°C° 0 mm 2 mps 746 mmHg 87%
18:00 +8°C° 0 mm 2 mps 746 mmHg 87%
19:00 +8°C° 0 mm 2 mps 746 mmHg 88%
20:00 +7°C° 0 mm 2 mps 746 mmHg 88%
21:00 +7°C° 0 mm 2 mps 746 mmHg 88%
22:00 +7°C° 0.1 mm 3 mps 746 mmHg 88%
23:00 +6°C° 0.1 mm 4 mps 746 mmHg 88%

26 October, Monday

Time Temperature Precipitation Wind Pressure Humidity
00:00 +6°C° 0.1 mm 4 mps 745 mmHg 87%
01:00 +6°C° 0.1 mm 5 mps 745 mmHg 87%
02:00 +6°C° 0.1 mm 5 mps 745 mmHg 88%
03:00 +6°C° 0.1 mm 5 mps 746 mmHg 88%
04:00 +6°C° 0.2 mm 5 mps 746 mmHg 87%
05:00 +6°C° 0.2 mm 5 mps 746 mmHg 87%
06:00 +6°C° 0.2 mm 5 mps 747 mmHg 87%
07:00 +6°C° 0 mm 5 mps 747 mmHg 86%
08:00 +6°C° 0 mm 5 mps 748 mmHg 84%
09:00 +6°C° 0 mm 5 mps 749 mmHg 82%
10:00 +7°C° 0 mm 5 mps 749 mmHg 80%
11:00 +8°C° 0 mm 5 mps 750 mmHg 78%
12:00 +8°C° 0 mm 5 mps 750 mmHg 75%
13:00 +8°C° 0 mm 5 mps 751 mmHg 77%
14:00 +7°C° 0 mm 5 mps 752 mmHg 78%
15:00 +6°C° 0 mm 5 mps 752 mmHg 80%
16:00 +5°C° 0 mm 4 mps 753 mmHg 81%
17:00 +4°C° 0 mm 4 mps 753 mmHg 82%
18:00 +3°C° 0 mm 3 mps 754 mmHg 84%
19:00 +2°C° 0 mm 3 mps 755 mmHg 85%
20:00 +2°C° 0 mm 3 mps 755 mmHg 86%
21:00 +1°C° 0 mm 3 mps 755 mmHg 87%
22:00 +2°C° 0 mm 2 mps 756 mmHg 88%
23:00 +2°C° 0 mm 2 mps 756 mmHg 89%

27 October, Tuesday

Time Temperature Precipitation Wind Pressure Humidity
00:00 +2°C° 0 mm 2 mps 756 mmHg 90%
01:00 +3°C° 0 mm 1 mps 757 mmHg 91%
02:00 +3°C° 0 mm 1 mps 757 mmHg 92%
03:00 +3°C° 0 mm 1 mps 757 mmHg 94%
04:00 +3°C° 0 mm 1 mps 757 mmHg 94%
05:00 +2°C° 0 mm 1 mps 758 mmHg 94%
06:00 +2°C° 0 mm 1 mps 758 mmHg 94%
07:00 +3°C° 0 mm 1 mps 758 mmHg 92%
08:00 +4°C° 0 mm 1 mps 759 mmHg 90%
09:00 +5°C° 0 mm 1 mps 759 mmHg 88%
10:00 +6°C° 0 mm 1 mps 759 mmHg 85%
11:00 +7°C° 0 mm 1 mps 759 mmHg 82%
12:00 +8°C° 0 mm 1 mps 759 mmHg 79%
13:00 +8°C° 0 mm 1 mps 759 mmHg 80%
14:00 +8°C° 0 mm 1 mps 759 mmHg 81%
15:00 +8°C° 0 mm 1 mps 759 mmHg 82%
16:00 +6°C° 0 mm 2 mps 760 mmHg 85%
17:00 +5°C° 0 mm 2 mps 760 mmHg 88%
18:00 +5°C° 0 mm 2 mps 760 mmHg 91%
19:00 +4°C° 0 mm 2 mps 760 mmHg 91%
20:00 +4°C° 0 mm 2 mps 760 mmHg 92%
21:00 +5°C° 0 mm 1 mps 761 mmHg 92%
22:00 +5°C° 0 mm 1 mps 761 mmHg 92%
23:00 +5°C° 0 mm 1 mps 761 mmHg 93%
Show more